Home > Weather > Sonneberg > Past weeks

Flag for Germany Weather for the Past 2 Weeks in Sonneberg, Thuringia, Germany

Now
39 °F

Overcast.


Feels Like: 32 °F
Forecast: 29 / 36 °F
Wind: 13 mph from Southwest

Location: Hof Airport

Current Time: Feb 14, 2016 at 11:53:36 AM

Latest Report: Feb 14, 2016 at 11:20 AM


Visibility: N/A

Pressure: 29.15 "Hg

Humidity: 87%

Dew point: 36 °F

Location of SonnebergLocation

Historic Weather in Sonneberg — Graph

°F

Sonneberg Temperature Yesterday

Maximum temperature yesterday: 32 °F (at 10:50 AM)
Minimum temperature yesterday: 30 °F (at 9:50 AM)
Average temperature yesterday: 32 °F

High & Low Weather Summary for the Past Weeks

 TemperatureHumidityPressure
High48 °F (Feb 1, 6:50 AM)94% (Feb 1, 7:50 AM)30.30 "Hg (Feb 1, 7:50 AM)
Low30 °F (Feb 3, 7:50 PM)66% (Jan 30, 3:20 PM)29.09 "Hg (Feb 9, 7:20 PM)
Average38 °F84%29.75 "Hg
* Reported Jan 30 10:20 AM — Feb 14 10:20 AM, Sonneberg, Weather by CustomWeather, © 2016

Note: Actual official high and low records may vary slightly from our data, if they occured in-between our weather recording intervals... More about our weather records

Advertising

Sonneberg Weather History for the Previous 24 Hours

 ConditionsComfort  
Time TempWeatherWind HumidityBarometerVisibility
10:20 AM
Sun, Feb 14
39 °FMostly cloudy.13 mph87%29.12 "HgN/A
9:50 AM39 °FMostly cloudy.15 mph87%29.12 "HgN/A
9:20 AM39 °FLight rain. Low clouds.14 mph87%29.12 "Hg4 mi
5:50 PM
Sat, Feb 13
32 °FIce fog.7 mph93%29.21 "Hg3 mi
5:20 PM32 °FIce fog.7 mph93%29.21 "Hg3 mi
4:50 PM32 °FIce fog.6 mph93%29.24 "Hg3 mi
4:20 PM32 °FIce fog.7 mph93%29.24 "Hg3 mi
3:50 PM32 °FLow clouds.7 mph93%29.24 "Hg4 mi
3:20 PM32 °FMostly cloudy.7 mph87%29.27 "Hg5 mi
2:50 PM32 °FLow clouds.8 mph87%29.24 "Hg5 mi
2:20 PM32 °FLow clouds.7 mph87%29.27 "Hg6 mi
1:50 PM32 °FLow clouds.7 mph87%29.27 "HgN/A
1:20 PM32 °FOvercast.8 mph87%29.27 "HgN/A
12:50 PM32 °FPartly sunny.9 mph87%29.30 "HgN/A
12:20 PM32 °FMostly cloudy.8 mph80%29.30 "HgN/A
11:50 AM32 °FMore clouds than sun.10 mph80%29.30 "HgN/A
11:20 AM32 °FBroken clouds.7 mph80%29.33 "HgN/A
Weather by CustomWeather, © 2016

See weather overviewHow to use our weather pages